SVW15 LSGG-LIMJ

Flight info

Callsign SVW15
Flight time 0h 35m
Altitude 23000
Route MEDAM DCT NITAM DCT MOGBO DCT TOP/N0395F190 M730 TESTO
Aircraft A319/M-SDE3FGHIRWY/LB1

Departure

Time 2026-04-15 11:05
Airport Geneva International Airport (LSGG)

Arrival

Time 2026-04-15 11:40
Airport Genoa Cristoforo Colombo Airport (LIMJ)
Time Latitude Longitude Altitude Speed Heading
2026-04-15 10:33 46.22636 6.09625 1400 ft 0 kts 135°
2026-04-15 10:50 46.22644 6.09614 1407 ft 4 kts 137°
2026-04-15 10:51 46.22665 6.09590 1400 ft 4 kts 158°
2026-04-15 10:51 46.22688 6.09588 1406 ft 3 kts 223°
2026-04-15 10:51 46.22690 6.09590 1406 ft 0 kts 225°
2026-04-15 10:53 46.22682 6.09578 1405 ft 4 kts 226°
2026-04-15 10:54 46.22642 6.09518 1395 ft 11 kts 225°
2026-04-15 10:54 46.22588 6.09436 1396 ft 12 kts 231°
2026-04-15 10:54 46.22555 6.09345 1404 ft 8 kts 256°
2026-04-15 10:54 46.22536 6.09282 1410 ft 7 kts 223°
2026-04-15 10:55 46.22489 6.09246 1414 ft 7 kts 208°
2026-04-15 10:55 46.22473 6.09213 1413 ft 3 kts 261°
2026-04-15 10:55 46.22476 6.09175 1417 ft 3 kts 281°
2026-04-15 10:55 46.22483 6.09149 1416 ft 3 kts 298°
2026-04-15 10:56 46.22486 6.09144 1417 ft 0 kts 309°
2026-04-15 11:02 46.22489 6.09142 1414 ft 2 kts 320°
2026-04-15 11:02 46.22545 6.09150 1414 ft 11 kts 12°
2026-04-15 11:03 46.22620 6.09167 1416 ft 10 kts 19°
2026-04-15 11:03 46.22655 6.09207 1417 ft 0 kts 45°
2026-04-15 11:04 46.22733 6.09321 1417 ft 51 kts 45°
2026-04-15 11:04 46.23160 6.09950 1409 ft 121 kts 45°
2026-04-15 11:05 46.23866 6.10998 1597 ft 153 kts 49°
2026-04-15 11:05 46.24569 6.12085 2432 ft 148 kts 46°
2026-04-15 11:05 46.25298 6.13171 3169 ft 153 kts 45°
2026-04-15 11:05 46.26078 6.14268 3788 ft 159 kts 42°
2026-04-15 11:06 46.26914 6.15455 4201 ft 179 kts 44°
2026-04-15 11:06 46.27848 6.16817 4561 ft 202 kts 44°
2026-04-15 11:06 46.28883 6.18337 5005 ft 223 kts 44°
2026-04-15 11:06 46.29913 6.20126 5485 ft 248 kts 61°
2026-04-15 11:07 46.30283 6.22611 6310 ft 263 kts 92°
2026-04-15 11:07 46.29643 6.25110 7225 ft 275 kts 125°
2026-04-15 11:07 46.28116 6.26829 8140 ft 285 kts 150°
2026-04-15 11:07 46.26334 6.28111 9124 ft 287 kts 153°
2026-04-15 11:08 46.24507 6.29314 10089 ft 290 kts 154°
2026-04-15 11:08 46.22622 6.30523 10679 ft 307 kts 155°
2026-04-15 11:08 46.20600 6.31826 10999 ft 330 kts 154°
2026-04-15 11:08 46.18468 6.33216 11345 ft 349 kts 154°
2026-04-15 11:09 46.16234 6.34693 12028 ft 356 kts 154°
2026-04-15 11:09 46.13970 6.36203 12793 ft 361 kts 154°
2026-04-15 11:09 46.11682 6.37739 13577 ft 365 kts 154°
2026-04-15 11:09 46.09369 6.39295 14308 ft 369 kts 154°
2026-04-15 11:10 46.07031 6.40868 14977 ft 373 kts 154°
2026-04-15 11:10 46.04667 6.42455 15641 ft 377 kts 155°
2026-04-15 11:10 46.02305 6.44037 16277 ft 382 kts 154°
2026-04-15 11:10 45.99885 6.45655 16925 ft 386 kts 154°
2026-04-15 11:11 45.97436 6.47289 17571 ft 390 kts 154°
2026-04-15 11:11 45.94960 6.48939 18210 ft 395 kts 154°
2026-04-15 11:11 45.92452 6.50608 18807 ft 399 kts 154°
2026-04-15 11:11 45.89926 6.52285 19384 ft 402 kts 155°
2026-04-15 11:12 45.87378 6.53979 19969 ft 405 kts 155°
2026-04-15 11:12 45.84812 6.55687 20548 ft 408 kts 154°
2026-04-15 11:12 45.82232 6.57404 21106 ft 410 kts 154°
2026-04-15 11:12 45.79634 6.59130 21661 ft 413 kts 155°
2026-04-15 11:13 45.77015 6.60868 22210 ft 416 kts 155°
2026-04-15 11:13 45.74415 6.62592 22735 ft 419 kts 155°
2026-04-15 11:13 45.71766 6.64345 23074 ft 421 kts 155°
2026-04-15 11:13 45.69077 6.66120 23148 ft 431 kts 155°
2026-04-15 11:14 45.66311 6.67943 23145 ft 445 kts 155°
2026-04-15 11:14 45.63456 6.69819 23138 ft 457 kts 155°
2026-04-15 11:14 45.60528 6.71740 23149 ft 468 kts 155°
2026-04-15 11:14 45.57542 6.73701 23149 ft 477 kts 155°
2026-04-15 11:15 45.54502 6.75693 23147 ft 484 kts 155°
2026-04-15 11:15 45.51436 6.77701 23141 ft 485 kts 155°
2026-04-15 11:15 45.48367 6.79712 23147 ft 486 kts 155°
2026-04-15 11:15 45.45334 6.81698 23146 ft 486 kts 155°
2026-04-15 11:16 45.42259 6.83710 23147 ft 487 kts 155°
2026-04-15 11:16 45.39182 6.85721 23139 ft 487 kts 155°
2026-04-15 11:16 45.36105 6.87729 23146 ft 487 kts 155°
2026-04-15 11:16 45.33023 6.89734 23153 ft 487 kts 155°
2026-04-15 11:17 45.29944 6.91731 23152 ft 487 kts 155°
2026-04-15 11:17 45.26965 6.94001 23148 ft 486 kts 146°
2026-04-15 11:17 45.24307 6.96952 23154 ft 485 kts 136°
2026-04-15 11:17 45.21891 7.00295 23166 ft 485 kts 135°
2026-04-15 11:18 45.19511 7.03594 23170 ft 485 kts 135°
2026-04-15 11:18 45.17090 7.06930 23168 ft 485 kts 135°
2026-04-15 11:18 45.14659 7.10258 23175 ft 486 kts 135°
2026-04-15 11:18 45.12226 7.13575 23179 ft 486 kts 135°
2026-04-15 11:19 45.09959 7.17111 23182 ft 485 kts 126°
2026-04-15 11:19 45.08005 7.20995 23184 ft 485 kts 124°
2026-04-15 11:19 45.06067 7.24903 23184 ft 485 kts 124°
2026-04-15 11:19 45.04133 7.28804 23185 ft 485 kts 124°
2026-04-15 11:20 45.02223 7.32655 23186 ft 485 kts 124°
2026-04-15 11:20 45.00298 7.36563 23178 ft 485 kts 122°
2026-04-15 11:20 44.98706 7.40745 23172 ft 483 kts 112°
2026-04-15 11:20 44.97661 7.45232 23184 ft 481 kts 102°
2026-04-15 11:21 44.97059 7.49872 23185 ft 480 kts 98°
2026-04-15 11:21 44.96491 7.54524 23188 ft 480 kts 98°
2026-04-15 11:21 44.95918 7.59168 23191 ft 480 kts 98°
2026-04-15 11:21 44.95342 7.63816 23190 ft 480 kts 99°
2026-04-15 11:22 44.94773 7.68398 23192 ft 480 kts 99°
2026-04-15 11:22 44.94195 7.73041 23185 ft 480 kts 99°
2026-04-15 11:22 44.93615 7.77680 23183 ft 480 kts 99°
2026-04-15 11:22 44.93026 7.82291 23167 ft 468 kts 100°
2026-04-15 11:23 44.92132 7.86582 23174 ft 447 kts 110°
2026-04-15 11:23 44.90798 7.90492 23166 ft 440 kts 118°
2026-04-15 11:23 44.89284 7.94233 23168 ft 439 kts 118°
2026-04-15 11:23 44.87776 7.97963 23026 ft 437 kts 118°
2026-04-15 11:24 44.86281 8.01669 22645 ft 432 kts 118°
2026-04-15 11:24 44.84805 8.05328 21946 ft 427 kts 118°
2026-04-15 11:24 44.83364 8.08892 21321 ft 422 kts 118°
2026-04-15 11:24 44.81914 8.12469 20710 ft 418 kts 118°
2026-04-15 11:25 44.80477 8.16007 20120 ft 414 kts 119°
2026-04-15 11:25 44.79050 8.19504 19532 ft 411 kts 119°
2026-04-15 11:25 44.77631 8.22973 18982 ft 407 kts 119°
2026-04-15 11:25 44.76222 8.26410 18444 ft 404 kts 119°
2026-04-15 11:26 44.74821 8.29830 17876 ft 401 kts 119°
2026-04-15 11:26 44.73437 8.33209 17361 ft 397 kts 118°
2026-04-15 11:26 44.72084 8.36515 16863 ft 393 kts 119°
2026-04-15 11:26 44.70727 8.39828 16358 ft 389 kts 118°
2026-04-15 11:27 44.69384 8.43112 15839 ft 386 kts 118°
2026-04-15 11:27 44.68050 8.46370 15317 ft 383 kts 118°
2026-04-15 11:27 44.66724 8.49598 14776 ft 380 kts 119°
2026-04-15 11:27 44.65405 8.52802 14224 ft 378 kts 119°
2026-04-15 11:28 44.64088 8.55991 13623 ft 376 kts 119°
2026-04-15 11:28 44.62781 8.59151 13027 ft 372 kts 119°
2026-04-15 11:28 44.61488 8.62273 12446 ft 368 kts 118°
2026-04-15 11:28 44.60052 8.65225 11842 ft 366 kts 128°
2026-04-15 11:29 44.58267 8.67693 11263 ft 365 kts 139°
2026-04-15 11:29 44.56220 8.69612 11093 ft 341 kts 147°
2026-04-15 11:29 44.54279 8.71299 11013 ft 316 kts 146°
2026-04-15 11:29 44.52483 8.72878 10905 ft 295 kts 146°
2026-04-15 11:30 44.50794 8.74371 10783 ft 281 kts 145°
2026-04-15 11:30 44.49153 8.75824 10655 ft 284 kts 145°
2026-04-15 11:30 44.47458 8.77327 10519 ft 291 kts 145°
2026-04-15 11:30 44.45747 8.78841 10385 ft 291 kts 145°
2026-04-15 11:31 44.44025 8.80348 10256 ft 293 kts 147°
2026-04-15 11:31 44.42128 8.81276 10120 ft 297 kts 172°
2026-04-15 11:31 44.40072 8.80947 9768 ft 304 kts 200°
2026-04-15 11:31 44.38203 8.79544 9296 ft 304 kts 210°
2026-04-15 11:32 44.36395 8.78044 8872 ft 300 kts 210°
2026-04-15 11:32 44.34609 8.76569 8446 ft 297 kts 210°
2026-04-15 11:32 44.32843 8.75120 8032 ft 291 kts 210°
2026-04-15 11:32 44.31120 8.73713 7631 ft 283 kts 210°
2026-04-15 11:33 44.29444 8.72339 7206 ft 276 kts 211°
2026-04-15 11:33 44.28084 8.70529 6791 ft 269 kts 240°
2026-04-15 11:33 44.27488 8.68170 6397 ft 258 kts 268°
2026-04-15 11:33 44.27679 8.65749 5995 ft 248 kts 289°
2026-04-15 11:34 44.28132 8.63454 5608 ft 243 kts 289°
2026-04-15 11:34 44.28768 8.61342 5233 ft 231 kts 313°
2026-04-15 11:34 44.30004 8.60083 4896 ft 216 kts 345°
2026-04-15 11:34 44.31448 8.59946 4556 ft 206 kts 13°
2026-04-15 11:35 44.32814 8.60450 4233 ft 201 kts 16°
2026-04-15 11:35 44.34147 8.60992 3904 ft 198 kts 23°
2026-04-15 11:35 44.35255 8.62014 3605 ft 190 kts 43°
2026-04-15 11:35 44.35999 8.63476 3357 ft 181 kts 57°
2026-04-15 11:36 44.36618 8.64989 3066 ft 179 kts 56°
2026-04-15 11:36 44.37237 8.66478 2792 ft 173 kts 56°
2026-04-15 11:36 44.37821 8.67886 2548 ft 162 kts 56°
2026-04-15 11:36 44.38353 8.69176 2315 ft 144 kts 55°
2026-04-15 11:37 44.38827 8.70335 2118 ft 133 kts 55°
2026-04-15 11:37 44.39277 8.71430 1912 ft 128 kts 55°
2026-04-15 11:37 44.39711 8.72487 1727 ft 127 kts 55°
2026-04-15 11:37 44.40150 8.73555 1532 ft 126 kts 55°
2026-04-15 11:38 44.40585 8.74611 1358 ft 125 kts 56°
2026-04-15 11:38 44.41004 8.75690 1166 ft 128 kts 62°
2026-04-15 11:38 44.41267 8.76887 945 ft 128 kts 72°
2026-04-15 11:38 44.41408 8.78099 781 ft 126 kts 75°
2026-04-15 11:39 44.41509 8.79313 660 ft 126 kts 76°
2026-04-15 11:39 44.41630 8.80526 491 ft 126 kts 75°
2026-04-15 11:39 44.41600 8.81768 250 ft 132 kts 95°
2026-04-15 11:39 44.41424 8.83013 48 ft 132 kts 98°
2026-04-15 11:40 44.41210 8.84125 23 ft 96 kts 105°
2026-04-15 11:40 44.41103 8.84663 20 ft 27 kts 105°
2026-04-15 11:40 44.41089 8.84835 20 ft 13 kts 54°
2026-04-15 11:40 44.41171 8.84893 20 ft 14 kts 18°
2026-04-15 11:41 44.41264 8.84928 22 ft 14 kts 15°
2026-04-15 11:41 44.41353 8.84922 21 ft 14 kts 306°
2026-04-15 11:41 44.41383 8.84788 20 ft 15 kts 285°
2026-04-15 11:41 44.41429 8.84656 20 ft 16 kts 337°
2026-04-15 11:42 44.41499 8.84743 21 ft 15 kts 51°
2026-04-15 11:42 44.41564 8.84861 20 ft 16 kts 53°
2026-04-15 11:42 44.41640 8.84981 20 ft 17 kts 48°
2026-04-15 11:42 44.41710 8.85083 20 ft 12 kts 47°
2026-04-15 11:43 44.41752 8.85168 20 ft 6 kts 77°
2026-04-15 11:43 44.41742 8.85222 23 ft 2 kts 105°
2026-04-15 11:43 44.41742 8.85224 22 ft 0 kts 105°